Zurück zum Katalog

SL-8 DEB

AktivLEO
NORAD 19260·DEBRIS·🇷🇺 Russia

Gestartet Jun 21, 1988 von Plesetsk Cosmodrome

Loading…

Nächste Überflüge (nächste 24 Stunden)

TLE

AktuellSource: Space-Track

Epoche: Sep 14, 2026, 12:42 UTC

1 19260U 88053C   26257.52939267  .00001181  00000-0  24633-3 0  9999
2 19260  74.0586 175.5515 0007658 300.6696 108.8815 14.61057575 14798

Verfolge SL-8 DEB in Echtzeit mit AllMySat

Download on the App Store